Retour au catalogue

SL-8 DEB *

ActifLEO
NORAD 14813·DEBRIS·🇷🇺 Russia

Lancé Aug 3, 1983 depuis Plesetsk Cosmodrome

Loading…

Prochains Passages (prochaines 24 heures)

TLE

FraisSource: Space-Track

Époque: Sep 14, 2026, 08:41 UTC

1 14813U 83079C   26257.36247597  .00000705  00000-0  19070-3 0  9991
2 14813  74.0309 117.1814 0014427  90.4530 323.9529 14.49521197356149

Suivez SL-8 DEB * en temps réel avec AllMySat

Download on the App Store